Location: Gleizolles
(44.4833°N, 6.7667°E)
Time: 17:05:07
(UTC+00:00)

Altair - Pass Details

Date: 27 June 2024
Orbit: 1502 x 1681 km, 47.2° (Epoch: 13 July)

Event Time Altitude Azimuth Distance (km) Brightness Sun altitude
Rises 05:27:12 0° 292° (WNW) 4,694 9.6 14.6°
Reaches altitude 10° 05:30:13 10° 290° (WNW) 3,730 9.1 15.1°
Maximum altitude 05:39:34 68° 211° (SSW) 1,689 7.8 16.7°
Drops below altitude 10° 05:49:17 10° 131° (SE) 3,861 10.2 18.3°
Sets 05:52:28 0° 129° (SE) 4,867 10.7 18.9°
